[[{"header":{"parameterUnit":"m.s-1","parameterCategory":1,"la1":30.2992,"la2":30.254,"lo1":-89.0895,"lo2":-89.0443,"dy":0.0025,"dx":0.0025,"nx":19,"ny":19,"refTime":"2026-05-12T03:00:00:Z","depth":0,"parameterNumber":2,"parameterNumberName":"U-component_of_WINDS"},"data":[0,0,0,-4.3591,-4.3594,-4.3685,-4.3686,-4.3838,-4.384,0,0,0,0,0,0,0,0,0,0,0,-4.3584,-4.3586,-4.3591,-4.3594,-4.3685,-4.3686,-4.3838,-4.384,0,0,0,0,0,0,0,0,0,0,0,-4.3583,-4.3585,-4.3587,-4.3594,-4.3685,-4.3686,-4.3838,-4.3756,0,0,0,0,0,0,0,0,0,0,-4.3662,-4.3673,-4.3585,-4.3587,-4.3595,-4.3685,-4.3686,-4.3752,-4.3762,-4.3812,0,-4.386,0,-4.3852,-4.3852,-4.3853,0,0,0,-4.358,-4.3666,-4.3672,-4.3588,-4.3596,-4.3685,-4.364,-4.3757,-4.3768,-4.3825,-4.3862,-4.3866,-4.3855,-4.3854,-4.3855,-4.4187,-4.4189,0,0,-4.3575,-4.3612,-4.3665,-4.368,-4.3666,-4.3637,-4.3643,-4.3763,-4.3807,-4.3862,-4.3869,-4.3858,-4.3855,-4.3856,-4.4185,-4.4188,0,0,0,-4.357,-4.3609,-4.3611,-4.3675,-4.3689,-4.364,-4.3647,-4.3801,-4.3799,-4.3871,-4.3859,-4.3856,-4.3858,-4.4183,-4.4186,-4.4332,0,0,0,-4.3566,-4.3606,-4.361,-4.3634,-4.3687,-4.3746,-4.3683,-4.3791,-4.3803,-4.3859,-4.3856,-4.386,-4.418,-4.4185,-4.4323,-4.4396,0,0,0,-4.3571,-4.3606,-4.3626,-4.3635,-4.3676,-4.3743,-4.3747,-4.3792,-4.3797,-4.3853,-4.386,-4.4178,-4.4184,-4.4315,-4.4382,-4.4496,0,0,0,-4.3588,-4.3754,-4.3629,-4.381,-4.3675,-4.3831,-4.3746,-4.386,-4.3926,-4.3857,-4.418,-4.4186,-4.4312,-4.4374,-4.4487,-4.46,-4.465,0,0,-4.3819,-4.3784,-4.3887,-4.3777,-4.3965,-4.3814,-4.4024,-4.405,-4.4023,-4.4135,-4.4142,-4.4326,-4.4381,-4.4494,-4.4911,-4.4951,0,0,0,-4.3973,-4.4049,-4.409,-4.4154,-4.4176,-4.4203,-4.4192,-4.4202,-4.4295,-4.4087,-4.4395,-4.4427,-4.4492,-4.4544,-4.4578,-4.4633,-4.4211,-4.421,-4.421,-4.4354,-4.4308,-4.4478,-4.4444,-4.4507,-4.4494,-4.4542,-4.4553,-4.4489,-4.4563,-4.4597,-4.4855,-4.4917,-4.4942,-4.5,-4.465,-4.4651,-4.4651,-4.4652,-4.469,-4.4791,-4.4701,-4.4833,-4.4785,-4.4896,-4.4891,-4.4842,-4.494,-4.4825,-4.488,-4.476,-4.4987,-4.5035,-4.4662,-4.466,-4.4659,-4.4658,-4.4657,-4.4937,-4.4977,-4.4985,-4.5072,-4.5145,-4.5104,-4.5203,-4.5155,-4.5111,-4.5165,-4.5197,-4.5194,-4.5188,-4.5183,-4.5184,-4.5184,-4.5185,-4.5186,-4.5186,-4.5191,-4.5194,-4.5282,-4.532,-4.5355,-4.5395,-4.5384,-4.5418,-4.5443,-4.5401,-4.5401,-4.5332,-4.5016,-4.494,-4.52,-4.5198,-4.5196,-4.5195,-4.5194,-4.5553,-4.5463,-4.5599,-4.5634,-4.5676,-4.5753,-4.5689,-4.5762,-4.5783,-4.5834,-4.5752,-4.5525,-4.5487,-4.546,-4.5396,-4.5759,-4.5759,-4.5759,-4.5759,-4.5763,-4.5738,-4.5866,-4.5926,-4.5978,-4.5935,-4.6093,-4.6087,-4.6066,-4.6077,-4.6017,-4.5927,-4.5902,-4.5879,-4.5842,-4.5782,-4.6236,-4.6236,-4.6236,-4.5985,-4.5962,-4.6105,-4.6082,-4.611,-4.6137,-4.6285,-4.6359,-4.6317,-4.6255,-4.6085,-4.6065,-4.592,-4.5875,-4.5812,-4.5756,-4.5645,0,0]},{"header":{"parameterUnit":"m.s-1","parameterCategory":1,"la1":30.2992,"la2":30.254,"lo1":-89.0895,"lo2":-89.0443,"dy":0.0025,"dx":0.0025,"nx":19,"ny":19,"refTime":"2026-05-12T03:00:00:Z","depth":0,"parameterNumber":3,"parameterNumberName":"V-component_of_WINDS"},"data":[0,0,0,0.063,0.0628,0.0502,0.0501,0.0334,0.0333,0,0,0,0,0,0,0,0,0,0,0,0.0667,0.0666,0.0631,0.0628,0.0502,0.0501,0.0334,0.0333,0,0,0,0,0,0,0,0,0,0,0,0.0667,0.0666,0.0665,0.0627,0.0502,0.0501,0.0335,0.0431,0,0,0,0,0,0,0,0,0,0,0.0554,0.0588,0.0666,0.0665,0.0626,0.0502,0.0501,0.0436,0.0425,0.039,0,0.036,0,0.0344,0.0321,0.0321,0,0,0,0.0627,0.0597,0.0564,0.0664,0.0625,0.0502,0.0558,0.043,0.0418,0.0375,0.0358,0.0352,0.0341,0.032,0.0319,0.0122,0.0121,0,0,0.0634,0.0643,0.0572,0.0556,0.0578,0.0562,0.0554,0.0423,0.0403,0.0357,0.0348,0.0339,0.0319,0.0318,0.0123,0.0122,0,0,0,0.0654,0.0648,0.0618,0.0563,0.0541,0.0559,0.055,0.0409,0.0399,0.0346,0.0337,0.0318,0.0316,0.0124,0.0123,0.0086,0,0,0,0.0659,0.066,0.0621,0.0625,0.0543,0.0474,0.0539,0.0408,0.0393,0.0337,0.0318,0.0314,0.0125,0.0123,0.0089,0.0066,0,0,0,0.0675,0.0662,0.0643,0.0626,0.0573,0.0476,0.0458,0.0404,0.0387,0.0321,0.0314,0.0126,0.0124,0.0092,0.0071,0.0016,0,0,0,0.0695,0.0611,0.0643,0.0546,0.0574,0.0456,0.0459,0.037,0.0309,0.0317,0.0125,0.0123,0.0093,0.0074,0.0019,-0.003,-0.0048,0,0,0.0594,0.0599,0.0542,0.0566,0.0446,0.0474,0.0347,0.0281,0.0266,0.017,0.0165,0.0088,0.0071,0.0017,-0.0153,-0.0168,0,0,0,0.0513,0.0471,0.0437,0.0381,0.0332,0.0286,0.0241,0.0216,0.0136,0.022,0.0055,0.0044,0.0012,-0.0012,-0.0025,-0.0054,0.0113,0.0113,0.0113,0.0379,0.0367,0.0271,0.0243,0.0189,0.0144,0.0098,0.0057,0.0058,0.002,-0.001,-0.0111,-0.0138,-0.0148,-0.0178,-0.0034,-0.0035,-0.0035,-0.0035,0.0229,0.0167,0.0175,0.0083,0.007,-0.0008,-0.0054,-0.005,-0.0127,-0.009,-0.0119,-0.008,-0.0164,-0.0191,-0.0038,-0.0037,-0.0037,-0.0037,-0.0036,0.0138,0.0107,0.0082,0.0001,-0.0061,-0.0086,-0.0158,-0.0168,-0.0178,-0.0207,-0.024,-0.0239,-0.0242,-0.0221,-0.0221,-0.0222,-0.0222,-0.0222,-0.0222,0.0053,0.0027,-0.0032,-0.009,-0.0126,-0.0176,-0.022,-0.0258,-0.0302,-0.0304,-0.0304,-0.0301,-0.0168,-0.0136,-0.0228,-0.0227,-0.0226,-0.0226,-0.0225,-0.0099,-0.0065,-0.0156,-0.0192,-0.0261,-0.0322,-0.0331,-0.0406,-0.0438,-0.0474,-0.0463,-0.0362,-0.0359,-0.0349,-0.0323,-0.0458,-0.0458,-0.0458,-0.0458,-0.0178,-0.0175,-0.0269,-0.0326,-0.0384,-0.0401,-0.0505,-0.054,-0.0573,-0.0594,-0.0575,-0.054,-0.0529,-0.0532,-0.0518,-0.0494,-0.067,-0.067,-0.067,-0.0273,-0.0276,-0.0362,-0.0389,-0.0443,-0.0489,-0.0588,-0.0657,-0.0686,-0.0679,-0.0611,-0.0602,-0.0546,-0.0526,-0.0521,-0.05,-0.0455,0,0]}]]